sat.trackr.live / text

‹ back to catalog

O3B FM6

NORAD 40081 · 2014-038C

PAYLOAD ACTIVE UNKNOWN

§ Identity

Operator
Country
O3B
Launch date
2014-07-10
Launch site
FRGUI
Launch vehicle
Mass (kg)
RCS (m²)
12.59

Purposes: comms

External: N2YO · Heavens-Above · Gunter

§ Orbital elements

Epoch: 2026-09-19T19:50:51.892800Z

Period
287.93 min
Inclination
0.0458°
Eccentricity
0.0002561
Mean motion
5.00115806 rev/d
Perigee alt
8,062.2 km
Apogee alt
8,069.6 km
Semi-major
14,444.0 km
B*
0.0000e+0
RAAN
353.0558°
Arg perigee
185.1188°
Mean anomaly
181.8286°
Rev number
22,256

§ Raw data

O3B FM61 40081U 14038C   26262.82698950 -.00000027  00000+0  00000+0 0  99922 40081   0.0458 353.0558 0002561 185.1188 181.8286  5.00115806222564

JSON: /api/v1/satellites/40081 · /tle

For live sub-satellite position, see the globe view (requires WebGL).

§ Visibility from observer

Set your observer location to see the next 7 days of passes ≥ 10°. The values pass through the URL so the page stays shareable.

No JS? Fill the form by hand. The geolocation button needs JavaScript.